Location: NCO
(38.4404°N, 77.1340°W)
Time: 19:38:44
(UTC-04:00)

Tiangong 2 - Visible Passes

Search period start: 20 May 2018 00:00
Search period end: 30 May 2018 00:00
Orbit: 382 x 386 km, 42.8° (Epoch: 20 May)

Date Brightness Start Highest point End Pass type
(mag) Time Alt. Az. Time Alt. Az. Time Alt. Az.
20 May 2.6 04:23:59 22° S 04:23:59 22° S 04:25:34 10° SSE visible
20 May 3.1 20:54:38 10° SSE 20:56:02 12° SE 20:57:22 10° ESE visible
20 May 3.6 22:29:13 10° WSW 22:29:43 14° WSW 22:29:43 14° WSW visible
21 May 1.5 21:29:39 10° SW 21:32:37 40° SSE 21:34:27 19° E visible
21 May 4.0 23:06:16 10° W 23:06:44 13° W 23:06:44 13° W visible
22 May 1.3 22:06:22 10° WSW 22:09:29 69° NNW 22:10:49 31° ENE visible
23 May 1.0 21:06:33 10° WSW 21:09:41 73° SSE 21:12:50 10° ENE visible
23 May 2.4 22:43:35 10° WNW 22:46:34 38° N 22:46:39 38° N visible
24 May 2.0 21:43:36 10° W 21:46:39 48° NNW 21:49:43 10° ENE visible
24 May 3.6 23:20:47 10° WNW 23:22:06 21° NW 23:22:06 21° NW visible
25 May 2.6 22:20:51 10° WNW 22:23:47 35° N 22:25:08 23° NE visible
26 May 2.5 21:20:52 10° WNW 21:23:50 38° N 21:26:50 10° ENE visible
26 May 2.7 22:57:54 10° WNW 23:00:14 35° NNW 23:00:14 35° NNW visible
27 May 2.5 21:58:02 10° WNW 22:00:59 36° N 22:03:02 17° ENE visible
27 May 4.1 23:34:46 10° WNW 23:35:13 13° WNW 23:35:13 13° WNW visible
28 May 2.6 20:58:05 10° WNW 21:01:01 35° N 21:03:57 10° ENE visible
28 May 1.6 22:34:57 10° WNW 22:37:58 55° N 22:37:58 55° N visible
29 May 2.1 21:35:07 10° WNW 21:38:08 41° N 21:40:42 13° E visible
29 May 3.5 23:11:50 10° WNW 23:12:53 19° W 23:12:53 19° W visible
